Kosmos-1196

operational
NORAD ID: 11879 Int'l Des: 1980-058 Owner: GUKOSR Country: SU
LEOCIRCULAR

About Kosmos-1196

Description loading...

Live Position

Loading 3D Globe...

Upcoming Passes

Altitude History

Altitude vs Time

uPlot chart will show altitude changes over time

Two-Line Element Set

1 11879U 80058E 26102.46103166 .00000004 00000-0 13242-3 0 9994
2 11879 74.0146 111.1944 0005309 316.6299 115.4282 12.48409416564214
Epoch: Apr 12, 2026 • Age: 9 hours

Current Status

Altitude 1475.7 km
Velocity 7.13 km/s
Sub-Earth Point -24.16°S, 40.12°W
Launch Date Jul 9, 1980
Age 45.7 years
Type other

Technical Details

Classification Payload
Mass 60.00 kg
Dry Mass 60.00 kg
Total Mass 60.00 kg
Length 0.80 m
Diameter 0.80 m
Span 0.80 m
Shape Poly
Manufacturer NPOPM
Bus Type Strela-1 11F625
Phase Status In Orbit
Owner/State GUKOSR/SU

Large Constellations

Loading constellations...